New Philadelphia, OH

1:39 AM EDT on May 01, 2017 (GMT -0400)
Clever

Weather History for KPHD - February, 2014

Change the Weather History Date:

Tuesday, February 4, 2014

  Actual Average Record
Temperature  
Mean Temperature 24 °F 30 °F  
Max Temperature 32 °F 39 °F 58 °F (1991)
Min Temperature 16 °F 21 °F -11 °F (1985)
Degree Days  
Heating Degree Days 41 35  
Month to date heating degree days 135 140  
Since 1 July heating degree days 3620 3412  
Cooling Degree Days 0 0  
Month to date cooling degree days 0 0  
Year to date cooling degree days 0 0  
Moisture  
Dew Point 16 °F    
Average Humidity 66    
Maximum Humidity 84    
Minimum Humidity 47    
Precipitation  
Precipitation 0.39 in 0.07 in 0.71 in (1990)
Month to date precipitation 0.56 0.29  
Year to date precipitation 2.38 2.89  
Sea Level Pressure  
Sea Level Pressure 30.26 in    
Wind  
Wind Speed 4 mph (NE)    
Max Wind Speed 13 mph    
Max Gust Speed 17 mph    
Visibility 6 miles    
Events Fog , Snow    
T = Trace of Precipitation, MM = Missing Value Source: NWS Daily Summary

Daily Weather History Graph

Daily Weather History Graph

Search for Another Location

Airport or City:

Trip Planner

Search our weather history database for the weather conditions in past years. The results will help you decide how hot, cold, wet, or windy it might be!

Date:

Astronomy

Feb. 04, 2014 Rise Set
Actual Time 7:32 AM EST 5:47 PM EST
Civil Twilight 7:03 AM EST 6:16 PM EST
Nautical Twilight 6:31 AM EST 6:48 PM EST
Astronomical Twilight 5:59 AM EST 7:20 PM EST
Moon 10:07 AM EST (2/4) 11:41 PM EST (2/4)
Length of Visible Light 11h 12m
Length of Day
10h 15m
Waxing Crescent, 29% of the Moon is Illuminated
Feb 4
Waxing Crescent
Feb 6
First Quarter
Feb 14
Full
Feb 22
Last Quarter
Mar 1
New

Hourly Weather History & Observations

Time (EST) Temp. Windchill Dew Point Humidity Pressure Visibility Wind Dir Wind Speed Gust Speed Precip Events Conditions
12:53 AM 17.1 °F - 12.0 °F 81% 30.41 in 8.0 mi Calm Calm - N/A   Clear
1:53 AM 16.0 °F - 10.9 °F 81% 30.39 in 8.0 mi Calm Calm - N/A   Clear
2:53 AM 17.1 °F - 12.0 °F 81% 30.42 in 8.0 mi Calm Calm - N/A   Clear
3:53 AM 17.1 °F - 12.0 °F 81% 30.40 in 7.0 mi Calm Calm - N/A   Clear
4:53 AM 17.1 °F - 12.9 °F 84% 30.40 in 6.0 mi Calm Calm - N/A   Clear
5:53 AM 19.0 °F 13.9 °F 12.9 °F 77% 30.42 in 9.0 mi NE 3.5 mph - N/A   Clear
6:53 AM 19.0 °F - 12.9 °F 77% 30.44 in 9.0 mi Calm Calm - N/A   Clear
7:53 AM 19.9 °F - 12.9 °F 74% 30.43 in 8.0 mi Calm Calm - N/A   Clear
8:53 AM 21.0 °F - 14.0 °F 74% 30.44 in 9.0 mi Calm Calm - N/A   Clear
9:53 AM 21.9 °F 17.2 °F 15.1 °F 75% 30.46 in 10.0 mi East 3.5 mph - N/A   Clear
10:53 AM 25.0 °F 18.1 °F 16.0 °F 69% 30.43 in 10.0 mi East 5.8 mph - N/A   Partly Cloudy
11:53 AM 27.0 °F 21.6 °F 15.1 °F 61% 30.39 in 10.0 mi Variable 4.6 mph - N/A   Clear
12:53 PM 28.9 °F 22.8 °F 15.1 °F 56% 30.31 in 10.0 mi East 5.8 mph - N/A   Mostly Cloudy
1:53 PM 30.0 °F - 12.0 °F 47% 30.30 in 10.0 mi Calm Calm - N/A   Partly Cloudy
2:53 PM 30.9 °F 25.2 °F 12.0 °F 46% 30.28 in 10.0 mi NNE 5.8 mph - N/A   Partly Cloudy
3:53 PM 30.9 °F 25.2 °F 14.0 °F 50% 30.29 in 10.0 mi NNE 5.8 mph - N/A   Overcast
4:53 PM 30.9 °F 23.5 °F 12.9 °F 47% 30.26 in 10.0 mi NE 8.1 mph - N/A   Partly Cloudy
5:53 PM 30.0 °F 21.1 °F 15.1 °F 54% 30.23 in 10.0 mi NNE 10.4 mph - N/A   Overcast
6:53 PM 30.0 °F 23.2 °F 16.0 °F 56% 30.20 in 10.0 mi NE 6.9 mph - N/A   Clear
7:53 PM 30.0 °F 24.1 °F 17.1 °F 59% 30.24 in 10.0 mi North 5.8 mph - N/A   Mostly Cloudy
8:48 PM 30.2 °F 24.3 °F 17.6 °F 60% 30.14 in 4.0 mi Variable 5.8 mph - 0.00 in Snow Light Snow
8:51 PM 28.4 °F 19.1 °F 17.6 °F 64% 30.14 in 1.8 mi ENE 10.4 mph - 0.00 in Snow Light Snow
8:53 PM 28.0 °F 18.6 °F 19.0 °F 69% 30.17 in 1.2 mi ENE 10.4 mph - 0.00 in Snow Light Snow
8:56 PM 28.0 °F 20.8 °F 19.9 °F 72% 30.13 in 0.8 mi ENE 6.9 mph - 0.00 in Snow Light Snow
9:12 PM 26.1 °F 17.6 °F 21.9 °F 84% 30.12 in 0.5 mi NE 8.1 mph - 0.02 in Fog , Snow Snow
9:53 PM 27.0 °F 18.0 °F 21.9 °F 81% 30.12 in 0.8 mi NE 9.2 mph - 0.07 in Snow Light Snow
10:53 PM 26.1 °F 21.9 °F 23.0 °F 88% 30.09 in 0.2 mi Variable 3.5 mph - 0.13 in Fog , Snow Heavy Snow
11:18 PM 27.0 °F 21.6 °F 23.0 °F 85% 30.04 in 0.5 mi NE 4.6 mph - 0.07 in Fog , Snow Snow
11:50 PM 26.6 °F 21.2 °F 23.0 °F 86% 30.01 in 1.0 mi ENE 4.6 mph - 0.17 in Snow Light Snow
11:51 PM 27.0 °F 20.5 °F 23.0 °F 85% 30.04 in 1.0 mi ENE 5.8 mph - 0.17 in Snow Light Snow
11:59 PM 27.0 °F 20.5 °F 23.0 °F 85% 30.00 in 1.8 mi ENE 5.8 mph - 0.02 in Snow Light Snow